Regional Weather Roundup
Issued by NWS

Home | Current Version | Previous Version | Graphics & Text | Print | Product List | Glossary On
Versions: 1 2 3 4 5 6 7 8 9 10 11 12 13 14 15 16 17 18 19 20 21 22 23 24 25 26 27 28 29 30 31 32 33 34 35 36 37 38 39 40 41 42 43 44 45 46 47 48 49 50
769
ASUS43 KLOT 281403
RWRIL

ILLINOIS REGIONAL WEATHER ROUNDUP
NATIONAL WEATHER SERVICE CHICAGO/ROMEOVILLE IL
900 AM CDT TUE MAR 28 2017

NOTE: "FAIR" INDICATES FEW OR NO CLOUDS BELOW 12,000 FEET WITH NO
SIGNIFICANT WEATHER AND/OR OBSTRUCTIONS TO VISIBILITY.

* THESE STATIONS ARE NOT UNDER NWS QUALITY CONTROL. THEY ALSO MAY NOT
  REPORT WEATHER SUCH AS PRECIPITATION OR FOG.

ILZ001-002-007-009-015-016-024-281500-
NORTHWEST ILLINOIS

CITY           SKY/WX    TMP DP  RH WIND       PRES   REMARKS
MOLINE         CLOUDY    49  44  83 NE6       30.09R HAZE
STERLING*      CLOUDY    45  41  86 E10       30.11R
SAVANNA*       CLOUDY    44  42  92 NE7       30.12R FOG
$$

ILZ003-004-008-010-011-017-018-281500-
NORTH CENTRAL ILLINOIS

CITY           SKY/WX    TMP DP  RH WIND       PRES   REMARKS
ROCKFORD       CLOUDY    43  37  79 NE10      30.13R
FREEPORT*      CLOUDY    41  40  95 E8        30.13R FOG
ROCHELLE*      CLOUDY    42  39  90 NE13      30.12R
DE KALB*       CLOUDY    41  39  91 NE10      30.11R FOG
PERU*          CLOUDY    42  38  86 NE8       30.11R HAZE
$$

ILZ005-006-012>014-019>023-281500-
NORTHEAST ILLINOIS

CITY           SKY/WX    TMP DP  RH WIND       PRES   REMARKS
CHICAGO-OHARE  CLOUDY    42  37  82 N10       30.09R
CHICAGO-MIDWAY CLOUDY    42  37  82 N10G22    30.10R
AURORA         CLOUDY    43  37  79 NE10      30.10R
LANSING*       CLOUDY    40  38  95 N7        30.10R
JOLIET*        CLOUDY    44  38  80 N9        30.10R
WAUKEGAN       CLOUDY    39  38  96 N14       30.10R FOG     WCI  31
DUPAGE AIRPORT CLOUDY    42  39  89 NE9       30.09S
WHEELING       CLOUDY    40  38  93 NE13      30.11S
MORRIS*        CLOUDY    43  37  80 CALM      30.09R
NORTHERLY ISL    N/A     39  36  89 NW10        N/A  WCI  32
$$

LMZ740>746-281500-
SOUTHERN LAKE MICHIGAN

STATION/POSITION SKY/WX   TEMP    WIND        PRES    VSBY  WAVE
                          AIR SEA DIR/SP/G                  HT/PER
                          (F)     (DEG/KT/KT) (MB)    (MI)  (FT/S)
HARRISON CRIB              39     350/ 12/ 13   N/A
BURNHAM HARBOR             39     350/ 11/ 14   N/A
CALUMET HARBOR             39     330/ 11/ 15 1018.6R
BURNS HARBOR               39     350/ 11/ 14 1019.3R
MICHIGAN CITY              38     360/ 13/ 14   N/A
$$

ILZ025>027-034>036-040-047-049-050-058-095>099-281500-
WEST-CENTRAL ILLINOIS

CITY           SKY/WX    TMP DP  RH WIND       PRES   REMARKS
QUINCY         CLOUDY    50  48  93 NE7       30.07R FOG
GALESBURG*     CLOUDY    47  47  98 NE3       30.09R FOG
MACOMB*        CLOUDY    49  48  98 NE7       30.10S FOG
JACKSONVILLE*  CLOUDY    50  49  96 N7        30.07F FOG
PITTSFIELD*    CLOUDY    51  49  93 NE5       30.08R FOG
$$

ILZ028>032-037-038-041>044-048-051>054-059>061-281500-
CENTRAL ILLINOIS

CITY           SKY/WX    TMP DP  RH WIND       PRES   REMARKS
PONTIAC        CLOUDY    44  41  90 N8        30.10R
BLOOMINGTON    CLOUDY    44  41  89 NE13      30.08R
DECATUR        PTSUNNY   48  41  76 N10       30.08R
PEORIA         CLOUDY    47  43  86 E10       30.09R
SPRINGFIELD    CLOUDY    50  45  83 E7        30.09R HAZE
TAYLORVILLE    NOT AVBL
$$

ILZ033-039-045-046-055>057-062-063-281500-
EAST-CENTRAL ILLINOIS

CITY           SKY/WX    TMP DP  RH WIND       PRES   REMARKS
CHAMPAIGN      CLOUDY    46  39  76 N13       30.07R
RANTOUL*       CLOUDY    46  40  81 N12       30.07R
MATTOON        CLOUDY    47  44  90 N12       30.05R
PARIS*         MOSUNNY   46  43  87 N8        30.06R
$$

ILZ079-100>102-281500-
SOUTHWEST ILLINOIS

CITY           SKY/WX    TMP DP  RH WIND       PRES   REMARKS
ALTON          CLOUDY    52  48  87 N7        30.07R
BELLEVILLE     CLOUDY    54  52  95 N9        30.05R
CAHOKIA*       CLOUDY    54  48  80 N5        30.06R
SPARTA*        CLOUDY    53  49  86 N7        30.06S
$$

ILZ064>066-069>071-074>076-080>082-084>086-088>090-092>094-281500-
SOUTH-CENTRAL ILLINOIS

CITY           SKY/WX    TMP DP  RH WIND       PRES   REMARKS
CARBONDALE     CLOUDY    54  51  90 N7        30.05R
CAIRO*         CLOUDY    56  52  88 N9        30.05R
EFFINGHAM*     CLOUDY    49  46  92 N7        30.08R
MARION         CLOUDY    55  55 100 MISG      30.04S
MT. VERNON     CLOUDY    52  48  86 N8        30.06R
CENTRALIA*     CLOUDY    53  49  86 N8        30.05S
SALEM*         CLOUDY    53  48  84 N8        30.06R
$$

ILZ067-068-072-073-078-083-087-091-281500-
SOUTHEAST ILLINOIS

CITY           SKY/WX    TMP DP  RH WIND       PRES   REMARKS
LAWRENCEVILLE  CLOUDY    52  49  89 N12       30.03R FOG
FLORA*         CLOUDY    52  48  86 N7        30.05R FOG
FAIRFIELD*     CLOUDY    53  49  86 N6        30.04R
HARRISBURG*    CLOUDY    53  51  92 N9        30.04R FOG
ROBINSON*      CLOUDY    50  47  90 N10       30.05R
CARMI*         CLOUDY    52  50  95 N13       30.03R FOG
$$

ABBREVIATIONS USED IN REMARKS
   TC - TEMPERATURE IN CELSIUS
  WCI - WIND CHILL INDEX
   HX - HEAT INDEX
  VSB - VISIBILITY
$$





USA.gov is the U.S. government's official web portal to all federal, state and local government web resources and services.